Theta_e
307 305 306 305 305 306 306 306 307 308 309 311 312 311 311 311 312 312 312 312 313 314 314 316 318 322 332 334 337 337 335 337
303 302 301 302 302 302 301 302 303 304 306 307 308 309 309 310 310 310 310 311 311 311 312 313 313 314 317 328 335 334 332 332
303 300 299 297 297 297 297 298 298 300 300 301 303 305 305 306 306 306 307 308 309 310 310 310 311 312 313 316 326 335 333 332
302 300 299 298 296 296 295 295 296 296 298 300 303 302 302 301 303 304 304 305 305 306 307 308 309 310 311 313 315 320 333 334
301 299 297 295 296 296 295 294 296 293 294 295 297 297 298 298 298 299 300 301 303 303 305 306 306 307 309 311 313 314 319 330
299 299 297 295 294 294 294 294 293 293 293 293 294 295 296 296 296 296 297 298 299 300 302 303 305 306 308 309 311 312 315 319
298 296 296 295 294 293 293 292 292 293 292 292 292 293 294 295 295 295 295 296 297 298 299 300 301 303 305 307 310 312 313 315
297 296 294 294 293 292 292 291 291 291 291 291 292 292 292 293 293 293 294 294 294 295 295 297 298 299 302 303 305 308 311 313
295 294 293 293 293 292 291 290 290 291 291 291 291 291 291 291 291 291 291 291 291 292 293 294 296 297 299 301 304 307 310 313
294 294 293 292 292 291 289 289 290 290 290 290 290 290 290 289 289 289 289 289 290 290 291 292 294 295 296 299 301 304 308 312
294 293 292 291 291 289 289 289 289 289 289 290 289 289 289 288 288 287 287 288 288 288 289 290 291 292 293 294 296 298 301 307
292 291 291 291 289 289 288 288 288 288 289 289 289 288 288 288 288 287 287 287 287 287 288 289 290 290 291 291 293 295 297 303
291 290 290 290 288 288 288 288 288 288 288 287 287 287 287 287 286 285 285 285 286 286 287 288 288 288 289 289 291 292 295 299
289 289 289 289 288 288 288 287 287 287 287 286 286 286 286 286 285 284 284 284 285 285 286 287 288 288 288 288 290 291 293 296
289 289 289 289 288 288 287 287 286 286 286 285 285 285 284 284 284 284 283 283 283 283 284 286 287 287 287 287 288 289 289 290
289 288 288 288 287 287 286 285 284 284 284 283 283 283 283 282 282 282 281 281 281 281 283 284 285 286 286 286 286 286 287 287
288 288 288 288 288 287 286 285 284 283 283 282 281 281 281 281 281 281 281 280 280 280 281 282 284 285 285 285 285 285 285 285
288 288 287 287 287 287 286 285 284 283 283 282 280 280 279 279 280 280 280 279 279 280 280 281 282 283 284 285 284 284 284 283
287 287 286 286 286 286 286 285 283 283 282 281 280 279 279 279 279 279 279 279 279 279 279 279 280 281 283 283 283 283 283 283
Wind_Speed
18 25 24 23 20 18 16 15 13 8 5 8 11 9 7 5 4 4 5 6 8 8 9 10 10 12 17 17 25 32 27 21
24 27 28 26 26 24 24 21 21 19 12 5 2 5 8 8 8 7 7 9 10 12 12 12 11 11 13 13 16 23 27 30
20 26 28 29 29 30 28 25 24 21 20 14 6 4 5 6 11 10 12 11 11 12 14 14 12 13 14 14 11 13 20 25
16 22 25 26 28 27 27 28 28 28 21 20 12 4 2 6 16 15 17 14 14 14 14 15 14 13 13 15 15 17 12 14
16 21 24 27 24 24 26 24 31 26 26 21 18 12 9 13 15 17 17 16 16 14 13 13 14 14 14 14 15 17 17 15
16 20 21 22 24 23 23 25 30 25 27 23 20 14 16 15 17 18 17 19 18 17 16 15 16 14 15 15 16 16 18 20
12 14 16 17 20 23 24 25 25 31 30 26 24 21 19 18 18 19 21 19 18 19 19 19 19 16 16 17 18 20 20 21
5 9 14 14 19 20 22 26 25 25 28 25 25 21 18 15 18 19 21 21 21 22 23 23 21 21 20 20 20 22 22 24
5 6 6 10 14 20 23 24 26 25 25 23 21 21 19 18 20 20 18 19 21 23 24 23 21 22 23 21 21 23 23 26
7 9 10 11 13 14 18 18 17 18 17 18 20 20 20 23 23 21 21 21 20 21 20 21 21 21 23 20 21 22 24 25
6 8 12 14 13 14 17 15 15 16 18 19 19 21 24 24 24 24 23 22 23 23 23 22 21 22 20 23 22 24 23 24
5 6 9 11 13 16 17 17 16 18 18 18 18 22 22 21 20 21 22 22 23 23 24 24 23 22 24 24 24 23 26 25
2 6 10 12 15 16 15 17 18 20 18 19 22 22 21 22 25 24 24 22 22 22 23 25 24 25 24 24 23 23 23 23
5 7 10 11 12 12 13 15 16 19 18 19 20 22 24 26 24 25 25 25 25 26 26 28 28 29 29 28 24 25 25 23
5 6 9 10 12 13 15 16 18 18 19 20 21 22 24 25 26 25 27 27 27 28 29 28 29 32 32 32 28 30 30 29
5 5 7 9 11 14 15 17 19 18 20 22 25 24 24 24 23 25 25 26 27 29 29 30 34 39 41 38 31 30 32 33
5 6 8 10 12 13 15 18 19 20 21 23 23 23 23 24 25 27 30 31 30 32 33 34 38 41 45 36 33 32 34 35
5 5 7 8 11 12 13 16 18 19 21 21 22 21 23 25 27 29 32 32 30 30 34 35 35 42 45 38 33 31 32 35
5 6 7 7 9 10 11 16 18 17 19 19 22 23 25 27 29 31 32 30 30 29 33 34 34 38 43 39 29 30 30 35
Wind_Direction
42 47 52 51 53 55 54 46 35 31 86 124 125 110 96 78 65 25 355 333 318 298 290 283 286 288 272 267 246 229 226 229
47 40 40 41 41 41 35 34 29 24 16 344 19 81 76 76 46 34 14 350 334 325 310 302 302 296 286 284 288 252 245 236
47 39 33 31 29 28 27 26 23 21 13 360 352 7 41 70 34 32 18 7 357 346 331 321 313 305 293 281 278 257 237 234
49 40 29 25 24 20 20 26 25 10 13 9 19 352 2 0 5 11 8 9 1 355 349 336 325 319 304 290 280 270 274 236
44 38 29 23 9 16 22 14 38 3 19 2 23 15 13 2 350 353 357 358 357 355 356 343 333 325 316 302 286 272 267 262
34 32 28 20 10 18 14 15 26 16 18 3 7 357 18 1 357 353 360 354 356 356 350 338 328 323 315 304 298 288 272 259
44 42 37 13 7 17 24 16 9 17 10 359 1 358 9 360 357 357 355 352 344 346 341 337 332 322 312 300 288 282 277 265
63 26 21 28 12 9 23 16 16 8 10 356 352 352 5 354 359 359 350 345 341 341 338 331 330 323 318 309 296 286 274 264
40 37 52 23 22 11 17 12 9 4 7 352 345 357 0 1 2 357 349 341 339 339 332 332 329 329 321 316 305 295 281 264
27 17 25 12 26 17 16 20 11 1 355 352 353 359 4 7 6 2 352 346 343 337 335 335 338 334 325 324 310 297 283 278
26 7 17 11 11 8 15 24 14 355 1 3 1 3 12 9 9 5 357 356 354 350 350 350 343 344 341 334 325 315 302 304
6 7 15 15 8 11 13 12 11 3 2 3 4 10 12 9 5 0 358 1 0 357 359 357 356 353 353 343 332 326 315 311
23 13 22 13 13 9 5 9 11 8 4 15 18 14 10 14 13 9 12 6 7 7 8 8 6 1 357 351 341 338 326 318
42 20 23 14 17 10 8 12 10 14 12 15 20 17 18 20 12 11 10 10 9 14 16 13 11 9 4 3 1 360 353 347
57 29 25 18 22 15 15 16 19 19 19 22 23 19 22 24 18 16 15 15 16 17 19 17 18 17 13 14 15 13 10 8
65 49 37 31 33 24 28 30 28 25 25 25 28 29 30 31 26 25 25 19 19 24 21 22 22 23 19 18 20 20 18 15
81 61 48 30 33 29 31 30 27 30 28 25 29 32 35 38 37 31 34 28 23 25 22 22 22 21 19 21 24 24 25 22
100 73 53 35 31 37 43 43 39 31 30 27 28 30 31 36 40 40 35 28 24 26 26 24 22 21 19 20 21 26 28 27
106 78 59 39 36 54 53 47 41 32 34 33 30 35 37 37 41 41 36 31 27 27 28 27 24 21 20 19 20 22 26 30